Mountain Home, Arkansas, United States (72653)
Lat: 36.34N, Lon: 92.39W
Wx Zone: ARZ005
Local Info
Past Weather Observations for Thursday, November 20, 2014

NOTE: This archive is for the closest National Weather Service station to Mountain Home. Information may differ from the station used for current weather conditions.

Click here for Long-term Archive

Time Weather Temperature Dewpoint Humidity Pressure Winds Precip Visibility
23:53
Clear
37°F / 3°C 23°F / -5°C 56% 30.24 in
(1024 mb)
E 5.8 mph
(E 9 kph)
- 10SM
22:53
Clear
37°F / 3°C 25°F / -4°C 60% 30.24 in
(1024 mb)
ESE 4.6 mph
(ESE 7 kph)
- 10SM
21:53
Clear
37°F / 3°C 23°F / -5°C 56% 30.24 in
(1024 mb)
E 4.6 mph
(E 7 kph)
- 10SM
20:53
Clear
39°F / 4°C 25°F / -4°C 56% 30.21 in
(1023 mb)
E 4.6 mph
(E 7 kph)
- 10SM
19:53
Clear
43°F / 6°C 25°F / -4°C 49% 30.18 in
(1022 mb)
SE 5.8 mph
(SE 9 kph)
- 10SM
18:53
Clear
43°F / 6°C 25°F / -4°C 49% 30.15 in
(1021 mb)
E 6.9 mph
(E 11 kph)
- 10SM
17:53
Clear
45°F / 7°C 25°F / -4°C 46% 30.15 in
(1021 mb)
ESE 4.6 mph
(ESE 7 kph)
- 10SM
16:53
Clear
46°F / 8°C 23°F / -5°C 40% 30.12 in
(1020 mb)
E 5.8 mph
(E 9 kph)
- 10SM
15:53
Clear
52°F / 11°C 21°F / -6°C 30% 30.12 in
(1020 mb)
SE 5.8 mph
(SE 9 kph)
- 10SM
14:53
Clear
52°F / 11°C 21°F / -6°C 30% 30.15 in
(1021 mb)
E 5.8 mph
(E 9 kph)
- 10SM
13:53
Partly Cloudy
52°F / 11°C 21°F / -6°C 30% 30.15 in
(1021 mb)
Variable 3.5 mph
(Variable 6 kph)
- 10SM
12:53
Clear
48°F / 9°C 19°F / -7°C 32% 30.18 in
(1022 mb)
Variable 6.9 mph
(Variable 11 kph)
- 10SM
11:53
Clear
46°F / 8°C 21°F / -6°C 37% 30.21 in
(1023 mb)
Calm - 9SM
10:53
Clear
43°F / 6°C 19°F / -7°C 39% 30.24 in
(1024 mb)
Calm - 10SM
09:53
Clear
37°F / 3°C 25°F / -4°C 60% 30.24 in
(1024 mb)
S 4.6 mph
(S 7 kph)
- 9SM
08:53
Clear
36°F / 2°C 25°F / -4°C 65% 30.24 in
(1024 mb)
Calm - 9SM
07:53
Clear
28°F / -2°C 25°F / -4°C 86% 30.24 in
(1024 mb)
Calm - 7SM
06:53
Clear
25°F / -4°C 21°F / -6°C 86% 30.21 in
(1023 mb)
Calm - 8SM
05:53
Clear
27°F / -3°C 21°F / -6°C 80% 30.21 in
(1023 mb)
Calm - 9SM
04:53
Clear
27°F / -3°C 21°F / -6°C 80% 30.21 in
(1023 mb)
Calm - 9SM
03:53
Clear
28°F / -2°C 21°F / -6°C 74% 30.21 in
(1023 mb)
Calm - 9SM
02:53
Clear
27°F / -3°C 21°F / -6°C 80% 30.24 in
(1024 mb)
Calm - 9SM
01:53
Clear
30°F / -1°C 23°F / -5°C 75% 30.24 in
(1024 mb)
Calm - 10SM
00:53
Clear
30°F / -1°C 21°F / -6°C 69% 30.21 in
(1023 mb)
Calm - 10SM
Time Weather Temperature Dewpoint Humidity Pressure Winds Precip Visibility


Weather for websites

WeatherForYou.com, LLC is not responsible for any damages or problems caused by this service. Current weather conditions are obtained from the closest station including government and personal stations which may have varying degrees of accuracy. Weather forecasts are derived from the NOAA NDFD. Like all things, this site belongs to Jesus Christ... He just trusts me to maintain it. If you have any questions or comments email webmaster@weatherforyou.com

Copyright © 2014, WeatherForYou.com LLC. All rights reserved.